Location: Unspecified
(51.9356°N, 0.0000°E)
Time: 01:09:01
(UTC+00:00)

Cosmos 1076 Rocket - Visible Passes

Search period start: 04 April 2026 00:00
Search period end: 14 April 2026 00:00
Orbit: 581 x 603 km, 82.5° (Epoch: 29 March)

Date Brightness Start Highest point End Pass type
(mag) Time Alt. Az. Time Alt. Az. Time Alt. Az.
4 Apr 5.9 02:06:05 10° NNE 02:09:24 21° ENE 02:12:43 10° ESE visible
4 Apr 3.6 03:42:48 10° NNW 03:47:00 51° W 03:50:30 14° SSW visible
5 Apr 5.4 02:14:34 10° N 02:18:21 28° ENE 02:21:56 11° SE visible
5 Apr 4.1 03:51:46 10° NNW 03:55:44 36° W 03:58:28 17° SSW visible
6 Apr 4.8 02:23:11 10° N 02:27:16 39° ENE 02:30:03 18° SE visible
6 Apr 4.6 04:00:49 10° NNW 04:04:24 26° W 04:06:35 17° SW visible
7 Apr 4.1 02:31:52 10° N 02:36:08 56° ENE 02:38:15 27° SE visible
7 Apr 5.0 04:10:02 10° NW 04:13:01 19° W 04:14:48 15° WSW visible
8 Apr 6.4 01:05:09 10° NE 01:06:52 12° ENE 01:08:36 10° E visible
8 Apr 3.5 02:40:36 10° N 02:44:58 80° E 02:46:33 38° SSE visible
8 Apr 5.4 04:19:33 10° NW 04:21:37 13° W 04:23:06 11° WSW visible
9 Apr 6.1 01:13:09 10° NNE 01:15:54 16° ENE 01:18:20 11° E visible
9 Apr 3.4 02:49:25 10° NNW 02:53:44 72° W 02:54:54 47° SSW visible
10 Apr 5.7 01:21:30 10° NNE 01:24:54 22° ENE 01:26:44 17° E visible
10 Apr 3.7 02:58:17 10° NNW 03:02:29 49° W 03:03:18 43° SW visible
11 Apr 5.2 01:30:01 10° N 01:33:50 29° ENE 01:35:10 25° E visible
11 Apr 4.2 03:07:15 10° NNW 03:11:11 35° W 03:11:44 33° WSW visible
12 Apr 4.6 01:38:37 10° N 01:42:44 41° ENE 01:43:39 36° ESE visible
12 Apr 4.6 03:16:18 10° NNW 03:19:51 25° W 03:20:13 25° W visible
13 Apr 3.9 01:47:18 10° N 01:51:35 58° ENE 01:52:08 53° ESE visible
13 Apr 5.1 03:25:32 10° NW 03:28:28 18° W 03:28:43 18° W visible
